Victorville, CA

5:48 AM PDT on July 24, 2017 (GMT -0700)
Southern California Logistics

Weather History for KVCV - February, 2013

Change the Weather History Date:

Monday, February 11, 2013

  Actual Average (KSBD) Record (KSBD)
Temperature  
Mean Temperature 38 °F -  
Max Temperature 50 °F 66 °F 84 °F (2016)
Min Temperature 26 °F 42 °F 35 °F (2013)
Degree Days  
Heating Degree Days 27    
Moisture  
Dew Point 13 °F    
Average Humidity 44    
Maximum Humidity 100    
Minimum Humidity 12    
Precipitation  
Precipitation 0.00 in - - ()
Sea Level Pressure  
Sea Level Pressure 30.13 in    
Wind  
Wind Speed 4 mph (ENE)    
Max Wind Speed 16 mph    
Max Gust Speed 24 mph    
Visibility 10 miles    
Events      
Averages and records for this station are not official NWS values.
T = Trace of Precipitation, MM = Missing Value Source: NWS Daily Summary

Daily Weather History Graph

Daily Weather History Graph

Search for Another Location

Airport or City:

Trip Planner

Search our weather history database for the weather conditions in past years. The results will help you decide how hot, cold, wet, or windy it might be!

Date:

Astronomy

Feb. 11, 2013 Rise Set
Actual Time 6:38 AM PST 5:29 PM PST
Civil Twilight 6:12 AM PST 5:55 PM PST
Nautical Twilight 5:43 AM PST 6:24 PM PST
Astronomical Twilight 5:13 AM PST 6:54 PM PST
Moon 7:11 AM PST (2/11) 7:23 PM PST (2/11)
Length of Visible Light 11h 42m
Length of Day
10h 50m
Waxing Crescent, 3% of the Moon is Illuminated
Feb 11
Waxing Crescent
Feb 17
First Quarter
Feb 25
Full
Mar 4
Last Quarter
Mar 11
New

Hourly Weather History & Observations

Time (PST) Temp. Windchill Dew Point Humidity Pressure Visibility Wind Dir Wind Speed Gust Speed Precip Events Conditions
12:15 AM 39.2 °F 35.0 °F 30.2 °F 70% 30.03 in 10.0 mi SE 5.8 mph - N/A   Overcast
12:35 AM 37.4 °F 32.8 °F 30.2 °F 75% 30.04 in 10.0 mi SSE 5.8 mph - N/A   Overcast
12:55 AM 37.4 °F 34.9 °F 30.2 °F 75% 30.04 in 10.0 mi SE 3.5 mph - N/A   Overcast
1:15 AM 37.4 °F - 30.2 °F 75% 30.05 in 10.0 mi Calm Calm - N/A   Mostly Cloudy
1:35 AM 37.4 °F - 30.2 °F 75% 30.04 in 10.0 mi Calm Calm - N/A   Mostly Cloudy
1:55 AM 37.4 °F 34.9 °F 30.2 °F 75% 30.05 in 10.0 mi East 3.5 mph - N/A   Mostly Cloudy
2:15 AM 37.4 °F 33.8 °F 30.2 °F 75% 30.05 in 10.0 mi ESE 4.6 mph - N/A   Overcast
2:35 AM 37.4 °F 32.8 °F 30.2 °F 75% 30.04 in 10.0 mi ESE 5.8 mph - N/A   Overcast
2:55 AM 35.6 °F - 28.4 °F 75% 30.04 in 10.0 mi Calm Calm - N/A   Overcast
3:15 AM 33.8 °F - 28.4 °F 81% 30.04 in 10.0 mi Calm Calm - N/A   Overcast
3:55 AM 33.8 °F 30.8 °F 28.4 °F 81% 30.04 in 10.0 mi South 3.5 mph - N/A   Scattered Clouds
4:15 AM 33.8 °F - 28.4 °F 81% 30.05 in 10.0 mi Calm Calm - N/A   Scattered Clouds
4:35 AM 33.8 °F - 28.4 °F 81% 30.05 in 10.0 mi Calm Calm - N/A   Clear
4:55 AM 30.2 °F - 26.6 °F 86% 30.06 in 10.0 mi Calm Calm - N/A   Clear
5:15 AM 32.0 °F - 28.4 °F 87% 30.06 in 10.0 mi Calm Calm - N/A   Clear
5:35 AM 30.2 °F - 26.6 °F 86% 30.06 in 10.0 mi Calm Calm - N/A   Clear
5:55 AM 30.2 °F - 28.4 °F 93% 30.07 in 10.0 mi Calm Calm - N/A   Clear
6:15 AM 30.2 °F - 26.6 °F 86% 30.08 in 10.0 mi Calm Calm - N/A   Clear
6:35 AM 26.6 °F - 24.8 °F 93% 30.09 in 7.0 mi Calm Calm - N/A   Clear
6:55 AM 26.6 °F - 24.8 °F 93% 30.10 in 7.0 mi Calm Calm - N/A   Clear
7:15 AM 26.6 °F 21.2 °F 26.6 °F 100% 30.10 in 10.0 mi SSW 4.6 mph - N/A   Clear
7:35 AM 30.2 °F - 26.6 °F 86% 30.11 in 10.0 mi Calm Calm - N/A   Clear
7:55 AM 33.8 °F 30.8 °F 26.6 °F 75% 30.12 in 10.0 mi WSW 3.5 mph - N/A   Clear
8:15 AM 35.6 °F - 26.6 °F 70% 30.13 in 10.0 mi Calm Calm - N/A   Clear
8:35 AM 37.4 °F - 26.6 °F 65% 30.13 in 10.0 mi Calm Calm - N/A   Clear
8:55 AM 39.2 °F 37.0 °F 23.0 °F 52% 30.14 in 10.0 mi WSW 3.5 mph - N/A   Clear
9:15 AM 41.0 °F - 19.4 °F 42% 30.14 in 10.0 mi Calm Calm - N/A   Clear
9:35 AM 42.8 °F 39.3 °F 17.6 °F 36% 30.15 in 10.0 mi WNW 5.8 mph - N/A   Clear
9:55 AM 42.8 °F - 12.2 °F 29% 30.16 in 10.0 mi Calm Calm - N/A   Clear
10:15 AM 44.6 °F 40.7 °F 12.2 °F 27% 30.16 in 10.0 mi NNW 6.9 mph - N/A   Unknown
10:35 AM 44.6 °F 40.2 °F 12.2 °F 27% 30.17 in 10.0 mi NNE 8.1 mph - N/A   Unknown
10:55 AM 44.6 °F 40.7 °F 10.4 °F 25% 30.17 in 10.0 mi North 6.9 mph - N/A   Unknown
11:15 AM 44.6 °F 39.7 °F 10.4 °F 25% 30.16 in 10.0 mi NE 9.2 mph - N/A   Unknown
11:35 AM 46.4 °F 44.3 °F 10.4 °F 23% 30.15 in 10.0 mi East 4.6 mph - N/A   Unknown
11:55 AM 48.2 °F - 10.4 °F 22% 30.14 in 10.0 mi North 4.6 mph - N/A   Unknown
12:15 PM 48.2 °F - 3.2 °F 16% 30.13 in 10.0 mi North 12.7 mph 18.4 mph N/A   Unknown
12:35 PM 48.2 °F - 3.2 °F 16% 30.13 in 10.0 mi North 12.7 mph 18.4 mph N/A   Clear
12:55 PM 48.2 °F - 3.2 °F 16% 30.13 in 10.0 mi NNW 12.7 mph 23.0 mph N/A   Clear
1:15 PM 48.2 °F - 3.2 °F 16% 30.12 in 10.0 mi North 10.4 mph - N/A   Clear
1:35 PM 48.2 °F - 1.4 °F 15% 30.11 in 10.0 mi North 13.8 mph 23.0 mph N/A   Clear
1:55 PM 48.2 °F - 1.4 °F 15% 30.11 in 10.0 mi NNW 11.5 mph 21.9 mph N/A   Clear
2:55 PM 50.0 °F - -2.2 °F 12% 30.12 in 10.0 mi NNW 16.1 mph 23.0 mph N/A   Clear
3:15 PM 50.0 °F - -2.2 °F 12% 30.12 in 10.0 mi NNW 15.0 mph 24.2 mph N/A   Clear
3:35 PM 50.0 °F - -0.4 °F 13% 30.12 in 10.0 mi NNW 8.1 mph - N/A   Clear
3:55 PM 48.2 °F - -0.4 °F 13% 30.12 in 10.0 mi North 13.8 mph 17.3 mph N/A   Clear
4:15 PM 48.2 °F - -0.4 °F 13% 30.13 in 10.0 mi North 8.1 mph - N/A   Clear
4:35 PM 48.2 °F - -2.2 °F 12% 30.13 in 10.0 mi NNW 8.1 mph - N/A   Clear
4:55 PM 48.2 °F - -2.2 °F 12% 30.14 in 1.8 mi NNE 9.2 mph - N/A   Haze
5:15 PM 46.4 °F 41.9 °F -2.2 °F 13% 30.14 in 10.0 mi North 9.2 mph - N/A   Clear
5:35 PM 44.6 °F 40.2 °F -2.2 °F 14% 30.15 in 10.0 mi NNE 8.1 mph - N/A   Clear
5:55 PM 44.6 °F 41.4 °F -2.2 °F 14% 30.16 in 10.0 mi ENE 5.8 mph - N/A   Clear
6:15 PM 42.8 °F 39.3 °F -0.4 °F 16% 30.16 in 10.0 mi East 5.8 mph - N/A   Clear
6:35 PM 42.8 °F 41.1 °F -0.4 °F 16% 30.16 in 10.0 mi East 3.5 mph - N/A   Clear
6:55 PM 41.0 °F 37.1 °F 1.4 °F 19% 30.17 in 10.0 mi ESE 5.8 mph - N/A   Clear
7:15 PM 42.8 °F 40.1 °F 1.4 °F 18% 30.17 in 10.0 mi East 4.6 mph - N/A   Clear
7:35 PM 41.0 °F 37.1 °F 1.4 °F 19% 30.18 in 10.0 mi East 5.8 mph - N/A   Clear
7:55 PM 39.2 °F 35.0 °F 1.4 °F 21% 30.18 in 10.0 mi East 5.8 mph - N/A   Clear
8:15 PM 39.2 °F 35.9 °F 1.4 °F 21% 30.19 in 10.0 mi ESE 4.6 mph - N/A   Clear
8:35 PM 39.2 °F 35.0 °F 3.2 °F 22% 30.19 in 10.0 mi ESE 5.8 mph - N/A   Clear
8:55 PM 37.4 °F 32.8 °F 3.2 °F 24% 30.20 in 10.0 mi SSE 5.8 mph - N/A   Clear
9:15 PM 35.6 °F 31.7 °F 3.2 °F 26% 30.20 in 10.0 mi SSE 4.6 mph - N/A   Clear
9:35 PM 30.2 °F 25.4 °F 6.8 °F 37% 30.21 in 10.0 mi South 4.6 mph - N/A   Clear
9:55 PM 30.2 °F 25.4 °F 6.8 °F 37% 30.21 in 10.0 mi South 4.6 mph - N/A   Clear
10:15 PM 30.2 °F 25.4 °F 8.6 °F 40% 30.22 in 10.0 mi South 4.6 mph - N/A   Clear
10:35 PM 30.2 °F 24.3 °F 6.8 °F 37% 30.22 in 10.0 mi SSE 5.8 mph - N/A   Clear
10:55 PM 30.2 °F 25.4 °F 8.6 °F 40% 30.22 in 10.0 mi South 4.6 mph - N/A   Clear
11:15 PM 30.2 °F 25.4 °F 8.6 °F 40% 30.22 in 10.0 mi South 4.6 mph - N/A   Clear
11:35 PM 28.4 °F - 8.6 °F 43% 30.23 in 10.0 mi Calm Calm - N/A   Clear
11:55 PM 30.2 °F - 8.6 °F 40% 30.23 in 10.0 mi Calm Calm - N/A   Clear